Location: Burla
(50.9568°N, 10.4983°E)
Time: 08:30:13
(UTC+00:00)

Cosmos 2366 rocket - Pass Details

Date: 18 January 2026
Orbit: 955 x 995 km, 82.9° (Epoch: 14 February)

Event Time Altitude Azimuth Distance (km) Brightness Sun altitude
Rises 05:53:27 0° 189° (S) 3,641 7.1 -12.0°
Reaches altitude 10° 05:55:56 10° 190° (S) 2,703 6.4 -11.6°
Maximum altitude 06:02:08 86° 278° (W) 986 4.0 -10.7°
Drops below altitude 10° 06:08:29 10° 9° (N) 2,751 6.3 -9.8°
Sets 06:11:01 0° 10° (N) 3,709 6.9 -9.4°
